Date,Installs,Update checks
2017-12-03,3,1
2017-12-04,6,2
2017-12-05,4,6
2017-12-06,3,5
2017-12-07,1,6
2017-12-08,1,4
2017-12-09,0,6
2017-12-10,2,6
2017-12-11,1,3
2017-12-12,1,9
2017-12-13,1,6
2017-12-14,2,9
2017-12-15,1,9
2017-12-16,2,7
2017-12-17,0,7
2017-12-18,1,13
2017-12-19,1,10
2017-12-20,1,11
2017-12-21,1,17
2017-12-22,1,14
2017-12-23,0,13
2017-12-24,1,15
2017-12-25,0,13
2017-12-26,2,15
2017-12-27,1,12
2017-12-28,1,11
2017-12-29,3,13
2017-12-30,2,8
2017-12-31,1,12
2018-01-01,3,10
2018-01-02,4,18
2018-01-03,2,15
2018-01-04,0,16
2018-01-05,0,17
2018-01-06,1,12
2018-01-07,6,18
2018-01-08,4,21
2018-01-09,2,23
2018-01-10,2,27
2018-01-11,5,28
2018-01-12,2,22
2018-01-13,3,25
2018-01-14,1,25
2018-01-15,3,28
2018-01-16,1,26
2018-01-17,2,37
2018-01-18,1,26
2018-01-19,1,26
2018-01-20,2,30
2018-01-21,2,26
2018-01-22,0,36
2018-01-23,1,36
2018-01-24,2,26
2018-01-25,1,28
2018-01-26,5,28
2018-01-27,3,35
2018-01-28,5,35
2018-01-29,1,33
2018-01-30,6,38
2018-01-31,5,37
2018-02-01,5,38
2018-02-02,2,40
2018-02-03,6,39
2018-02-04,3,41
2018-02-05,3,43
2018-02-06,1,58
2018-02-07,2,43
2018-02-08,2,43
2018-02-09,4,39
2018-02-10,2,49
2018-02-11,6,50
2018-02-12,5,45
2018-02-13,8,46
2018-02-14,2,49
2018-02-15,4,52
2018-02-16,3,47
2018-02-17,4,44
2018-02-18,1,49
2018-02-19,6,58
2018-02-20,2,64
2018-02-21,4,72
2018-02-22,3,57
2018-02-23,12,77
2018-02-24,16,66
2018-02-25,6,62
2018-02-26,5,68
2018-02-27,2,73
2018-02-28,10,64
2018-03-01,4,72
2018-03-02,6,75
2018-03-03,11,71
2018-03-04,6,68
2018-03-05,1,86
2018-03-06,0,80
2018-03-07,2,72
2018-03-08,1,89
2018-03-09,5,83
2018-03-10,6,82
2018-03-11,3,72
2018-03-12,3,91
2018-03-13,3,93
2018-03-14,1,91
2018-03-15,3,87
2018-03-16,1,85
2018-03-17,2,95
2018-03-18,10,83
2018-03-19,4,98
2018-03-20,0,100
2018-03-21,5,96
2018-03-22,2,90
2018-03-23,2,93
2018-03-24,8,102
2018-03-25,6,104
2018-03-26,6,91
2018-03-27,4,106
2018-03-28,6,96
2018-03-29,3,108
2018-03-30,3,96
2018-03-31,5,102
2018-04-01,3,106
2018-04-02,4,98
2018-04-03,1,105
2018-04-04,4,102
2018-04-05,3,92
2018-04-06,8,95
2018-04-07,3,108
2018-04-08,7,107
2018-04-09,2,114
2018-04-10,5,110
2018-04-11,5,121
2018-04-12,2,120
2018-04-13,7,127
2018-04-14,6,114
2018-04-15,4,120
2018-04-16,7,131
2018-04-17,5,119
2018-04-18,12,121
2018-04-19,6,121
2018-04-20,7,115
2018-04-21,9,125
2018-04-22,3,122
2018-04-23,3,127
2018-04-24,4,130
2018-04-25,3,129
2018-04-26,1,139
2018-04-27,3,132
2018-04-28,1,123
2018-04-29,5,142
2018-04-30,1,139
2018-05-01,1,124
2018-05-02,0,138
2018-05-03,1,135
2018-05-04,7,140
2018-05-05,2,132
2018-05-06,5,128
2018-05-07,5,141
2018-05-08,4,147
2018-05-09,6,149
2018-05-10,3,135
2018-05-11,2,142
2018-05-12,4,140
2018-05-13,6,133
2018-05-14,4,146
2018-05-15,8,143
2018-05-16,5,153
2018-05-17,3,139
2018-05-18,3,153
2018-05-19,4,107
2018-05-20,6,158
2018-05-21,5,171
2018-05-22,3,154
2018-05-23,0,164
2018-05-24,2,157
2018-05-25,2,175
2018-05-26,10,152
2018-05-27,1,161
2018-05-28,7,175
2018-05-29,0,176
2018-05-30,4,164
2018-05-31,5,169
2018-06-01,4,175
2018-06-02,3,125
2018-06-03,4,163
2018-06-04,1,136
2018-06-05,3,155
2018-06-06,4,153
2018-06-07,0,145
2018-06-08,3,143
2018-06-09,2,136
2018-06-10,7,143
2018-06-11,5,150
2018-06-12,5,153
2018-06-13,6,155
2018-06-14,2,155
2018-06-15,6,154
2018-06-16,2,152
2018-06-17,7,137
2018-06-18,3,155
2018-06-19,2,171
2018-06-20,4,140
2018-06-21,3,150
2018-06-22,3,162
2018-06-23,8,135
2018-06-24,6,156
2018-06-25,1,165
2018-06-26,4,150
2018-06-27,1,164
2018-06-28,2,150
2018-06-29,7,156
2018-06-30,8,166
2018-07-01,5,149
2018-07-02,6,161
2018-07-03,2,167
2018-07-04,5,157
2018-07-05,7,149
2018-07-06,3,168
2018-07-07,6,155
2018-07-08,6,159
2018-07-09,6,170
2018-07-10,2,176
2018-07-11,2,186
2018-07-12,3,145
2018-07-13,6,166
2018-07-14,7,148
2018-07-15,10,159
2018-07-16,5,179
2018-07-17,6,172
2018-07-18,8,176
2018-07-19,6,183
2018-07-20,6,175
2018-07-21,12,172
2018-07-22,5,171
2018-07-23,7,205
2018-07-24,10,186
2018-07-25,12,179
2018-07-26,8,188
2018-07-27,7,188
2018-07-28,7,162
2018-07-29,7,181
2018-07-30,4,206
2018-07-31,5,186
2018-08-01,3,184
2018-08-02,3,193
2018-08-03,3,185
2018-08-04,5,198
2018-08-05,6,189
2018-08-06,4,202
2018-08-07,6,175
2018-08-08,5,200
2018-08-09,5,199
2018-08-10,9,192
2018-08-11,9,206
2018-08-12,10,188
2018-08-13,4,207
2018-08-14,8,203
2018-08-15,6,205
2018-08-16,5,221
2018-08-17,4,201
2018-08-18,4,190
2018-08-19,4,200
2018-08-20,8,210
2018-08-21,13,204
2018-08-22,10,215
2018-08-23,5,213
2018-08-24,5,210
2018-08-25,6,200
2018-08-26,7,201
2018-08-27,5,217
2018-08-28,4,217
2018-08-29,4,196
2018-08-30,0,226
2018-08-31,5,209
2018-09-01,7,211
2018-09-02,6,208
2018-09-03,6,214
2018-09-04,4,227
2018-09-05,2,200
2018-09-06,3,210
2018-09-07,2,213
2018-09-08,6,194
2018-09-09,4,212
2018-09-10,2,214
2018-09-11,3,208
2018-09-12,2,212
2018-09-13,3,208
2018-09-14,5,215
2018-09-15,7,193
2018-09-16,9,219
2018-09-17,3,208
2018-09-18,4,227
2018-09-19,3,207
2018-09-20,1,212
2018-09-21,6,198
2018-09-22,3,197
2018-09-23,4,195
2018-09-24,5,225
2018-09-25,2,218
2018-09-26,6,211
2018-09-27,4,205
2018-09-28,6,229
2018-09-29,4,220
2018-09-30,1,199
2018-10-01,2,206
2018-10-02,5,213
2018-10-03,1,199
2018-10-04,9,204
2018-10-05,1,199
2018-10-06,3,192
2018-10-07,13,201
2018-10-08,8,215
2018-10-09,4,227
2018-10-10,1,217
2018-10-11,4,213
2018-10-12,3,232
2018-10-13,13,200
2018-10-14,11,215
2018-10-15,8,218
2018-10-16,5,218
2018-10-17,6,214
2018-10-18,6,231
2018-10-19,8,227
2018-10-20,8,224
2018-10-21,8,215
2018-10-22,7,228
2018-10-23,1,230
2018-10-24,3,223
2018-10-25,2,209
2018-10-26,11,246
2018-10-27,15,224
2018-10-28,10,223
2018-10-29,8,244
2018-10-30,4,229
2018-10-31,7,231
2018-11-01,3,234
2018-11-02,6,234
2018-11-03,7,228
2018-11-04,9,222
2018-11-05,5,253
2018-11-06,9,227
2018-11-07,7,252
2018-11-08,5,222
2018-11-09,9,246
2018-11-10,8,245
2018-11-11,7,236
2018-11-12,7,269
2018-11-13,9,240
2018-11-14,9,238
2018-11-15,9,248
2018-11-16,11,247
2018-11-17,11,237
2018-11-18,17,237
2018-11-19,10,239
2018-11-20,6,236
2018-11-21,4,247
2018-11-22,8,221
2018-11-23,8,244
2018-11-24,8,230
2018-11-25,10,229
2018-11-26,6,264
2018-11-27,6,267
2018-11-28,7,243
2018-11-29,5,251
2018-11-30,7,246
2018-12-01,8,249
2018-12-02,10,247
2018-12-03,5,254
2018-12-04,9,237
2018-12-05,13,274
2018-12-06,6,235
2018-12-07,4,248
2018-12-08,7,242
2018-12-09,7,261
2018-12-10,11,261
2018-12-11,10,266
2018-12-12,9,247
2018-12-13,11,244
2018-12-14,11,259
2018-12-15,9,223
2018-12-16,11,230
2018-12-17,10,254
2018-12-18,2,239
2018-12-19,5,246
2018-12-20,8,262
2018-12-21,2,250
2018-12-22,3,235
2018-12-23,7,240
2018-12-24,7,267
2018-12-25,10,258
2018-12-26,8,236
2018-12-27,2,258
2018-12-28,2,246
2018-12-29,6,227
2018-12-30,8,259
2018-12-31,8,243
2019-01-01,6,258
2019-01-02,11,302
2019-01-03,10,263
2019-01-04,6,275
2019-01-05,10,259
2019-01-06,8,269
2019-01-07,7,280
2019-01-08,4,265
2019-01-09,6,284
2019-01-10,10,266
2019-01-11,15,276
2019-01-12,14,260
2019-01-13,16,252
2019-01-14,8,271
2019-01-15,10,269
2019-01-16,5,259
2019-01-17,6,257
2019-01-18,8,285
2019-01-19,3,246
2019-01-20,7,259
2019-01-21,4,260
2019-01-22,5,273
2019-01-23,9,265
2019-01-24,6,262
2019-01-25,11,255
2019-01-26,8,251
2019-01-27,8,247
2019-01-28,7,270
2019-01-29,8,264
2019-01-30,12,272
2019-01-31,6,258
2019-02-01,4,238
2019-02-02,11,259
2019-02-03,10,254
2019-02-04,8,244
2019-02-05,6,203
2019-02-06,4,217
2019-02-07,18,236
2019-02-08,13,258
2019-02-09,14,261
2019-02-10,9,279
2019-02-11,7,282
2019-02-12,5,295
2019-02-13,7,269
2019-02-14,2,292
2019-02-15,2,297
2019-02-16,12,268
2019-02-17,5,290
2019-02-18,7,293
2019-02-19,6,299
2019-02-20,6,282
2019-02-21,8,276
2019-02-22,4,298
2019-02-23,5,266
2019-02-24,7,291
2019-02-25,3,304
2019-02-26,6,300
2019-02-27,6,297
2019-02-28,9,298
2019-03-01,13,271
2019-03-02,8,297
2019-03-03,13,271
2019-03-04,3,291
2019-03-05,3,296
2019-03-06,3,291
2019-03-07,2,296
2019-03-08,4,282
2019-03-09,3,278
2019-03-10,8,286
2019-03-11,3,304
2019-03-12,4,294
2019-03-13,3,289
2019-03-14,1,289
2019-03-15,3,290
2019-03-16,8,289
2019-03-17,3,273
2019-03-18,4,289
2019-03-19,1,288
2019-03-20,7,317
2019-03-21,6,277
2019-03-22,4,282
2019-03-23,2,272
2019-03-24,6,265
2019-03-25,3,299
2019-03-26,3,280
2019-03-27,5,290
2019-03-28,0,272
2019-03-29,1,282
2019-03-30,5,270
2019-03-31,4,275
2019-04-01,6,307
2019-04-02,1,268
2019-04-03,1,299
2019-04-04,5,268
2019-04-05,3,272
2019-04-06,5,270
2019-04-07,4,270
2019-04-08,8,294
2019-04-09,3,299
2019-04-10,4,319
2019-04-11,9,333
2019-04-12,2,295
2019-04-13,5,295
2019-04-14,7,300
2019-04-15,7,306
2019-04-16,4,312
2019-04-17,4,287
2019-04-18,7,312
2019-04-19,6,308
2019-04-20,8,299
2019-04-21,3,313
2019-04-22,5,329
2019-04-23,3,305
2019-04-24,6,293
2019-04-25,5,321
2019-04-26,6,302
2019-04-27,5,298
2019-04-28,4,285
2019-04-29,11,332
2019-04-30,4,315
2019-05-01,5,316
2019-05-02,6,332
2019-05-03,4,323
2019-05-04,1,301
2019-05-05,2,327
2019-05-06,8,333
2019-05-07,5,333
2019-05-08,4,315
2019-05-09,7,344
2019-05-10,1,333
2019-05-11,5,304
2019-05-12,15,315
2019-05-13,3,326
2019-05-14,5,316
2019-05-15,4,314
2019-05-16,7,330
2019-05-17,4,297
2019-05-18,5,315
2019-05-19,4,296
2019-05-20,2,321
2019-05-21,10,325
2019-05-22,8,309
2019-05-23,7,295
2019-05-24,4,335
2019-05-25,7,304
2019-05-26,7,302
2019-05-27,6,337
2019-05-28,3,319
2019-05-29,7,312
2019-05-30,5,318
2019-05-31,4,329
2019-06-01,2,288
2019-06-02,5,286
2019-06-03,0,331
2019-06-04,8,336
2019-06-05,4,332
2019-06-06,3,295
2019-06-07,5,313
2019-06-08,12,292
2019-06-09,6,305
2019-06-10,3,329
2019-06-11,5,333
2019-06-12,4,323
2019-06-13,6,319
2019-06-14,3,323
2019-06-15,2,292
2019-06-16,8,276
2019-06-17,7,316
2019-06-18,5,300
2019-06-19,5,280
2019-06-20,3,300
2019-06-21,1,301
2019-06-22,5,297
2019-06-23,6,261
2019-06-24,5,310
2019-06-25,2,287
2019-06-26,5,279
2019-06-27,7,312
2019-06-28,3,295
2019-06-29,4,275
2019-06-30,7,271
2019-07-01,1,282
2019-07-02,23,287
2019-07-03,11,308
2019-07-04,8,292
2019-07-05,10,293
2019-07-06,5,285
2019-07-07,9,286
2019-07-08,13,292
2019-07-09,9,297
2019-07-10,6,303
2019-07-11,5,292
2019-07-12,8,287
2019-07-13,5,268
2019-07-14,6,297
2019-07-15,8,300
2019-07-16,10,306
2019-07-17,9,293
2019-07-18,3,300
2019-07-19,6,282
2019-07-20,4,293
2019-07-21,11,289
2019-07-22,11,325
2019-07-23,9,291
2019-07-24,4,301
2019-07-25,7,314
2019-07-26,6,291
2019-07-27,12,281
2019-07-28,13,298
2019-07-29,11,312
2019-07-30,5,311
2019-07-31,1,331
2019-08-01,6,318
2019-08-02,2,299
2019-08-03,5,310
2019-08-04,5,292
2019-08-05,5,335
2019-08-06,5,311
2019-08-07,3,311
2019-08-08,5,318
2019-08-09,4,335
2019-08-10,6,311
2019-08-11,3,310
2019-08-12,8,308
2019-08-13,5,318
2019-08-14,4,298
2019-08-15,3,309
2019-08-16,6,297
2019-08-17,4,292
2019-08-18,3,293
2019-08-19,5,317
2019-08-20,1,310
2019-08-21,3,306
2019-08-22,2,294
2019-08-23,2,303
2019-08-24,8,275
2019-08-25,14,268
2019-08-26,10,327
2019-08-27,11,296
2019-08-28,13,313
2019-08-29,4,333
2019-08-30,5,297
2019-08-31,4,299
2019-09-01,6,299
2019-09-02,6,316
2019-09-03,3,315
2019-09-04,3,324
2019-09-05,5,305
2019-09-06,6,308
2019-09-07,9,304
2019-09-08,8,290
2019-09-09,6,321
2019-09-10,6,334
2019-09-11,3,334
2019-09-12,6,332
2019-09-13,5,297
2019-09-14,7,296
2019-09-15,11,315
2019-09-16,6,315
2019-09-17,4,315
2019-09-18,8,332
2019-09-19,4,315
2019-09-20,5,313
2019-09-21,4,303
2019-09-22,11,313
2019-09-23,9,324
2019-09-24,5,307
2019-09-25,4,328
2019-09-26,5,312
2019-09-27,5,336
2019-09-28,13,300
2019-09-29,11,319
2019-09-30,5,316
2019-10-01,13,329
2019-10-02,5,315
2019-10-03,11,302
2019-10-04,10,331
2019-10-05,21,339
2019-10-06,13,316
2019-10-07,10,314
2019-10-08,5,368
2019-10-09,10,333
2019-10-10,13,336
2019-10-11,13,322
2019-10-12,8,321
2019-10-13,15,330
2019-10-14,10,357
2019-10-15,6,348
2019-10-16,10,336
2019-10-17,9,342
2019-10-18,7,340
2019-10-19,7,307
2019-10-20,4,322
2019-10-21,9,354
2019-10-22,9,347
2019-10-23,8,345
2019-10-24,7,360
2019-10-25,9,336
2019-10-26,19,336
2019-10-27,11,341
2019-10-28,6,365
2019-10-29,9,333
2019-10-30,5,375
2019-10-31,9,335
2019-11-01,12,348
2019-11-02,6,327
2019-11-03,14,333
2019-11-04,6,358
2019-11-05,7,370
2019-11-06,5,346
2019-11-07,8,350
2019-11-08,5,364
2019-11-09,7,333
2019-11-10,5,370
2019-11-11,2,373
2019-11-12,8,379
2019-11-13,21,391
2019-11-14,17,375
2019-11-15,11,362
2019-11-16,8,367
2019-11-17,13,348
2019-11-18,9,380
2019-11-19,2,390
2019-11-20,11,360
2019-11-21,8,393
2019-11-22,7,376
2019-11-23,9,350
2019-11-24,12,390
2019-11-25,9,387
2019-11-26,5,385
2019-11-27,7,391
2019-11-28,7,392
2019-11-29,5,400
2019-11-30,5,372
2019-12-01,10,363
2019-12-02,3,406
2019-12-03,7,372
2019-12-04,5,390
2019-12-05,5,378
2019-12-06,4,391
2019-12-07,13,345
2019-12-08,9,374
2019-12-09,7,406
2019-12-10,5,396
2019-12-11,2,399
2019-12-12,4,415
2019-12-13,7,389
2019-12-14,4,403
2019-12-15,8,384
2019-12-16,7,422
2019-12-17,6,381
2019-12-18,5,391
2019-12-19,3,406
2019-12-20,9,395
2019-12-21,5,390
2019-12-22,5,373
2019-12-23,5,425
2019-12-24,2,393
2019-12-25,4,413
2019-12-26,5,394
2019-12-27,9,400
2019-12-28,5,410
2019-12-29,11,410
2019-12-30,3,412
2019-12-31,6,383
2020-01-01,4,391
2020-01-02,3,423
2020-01-03,7,442
2020-01-04,6,400
2020-01-05,13,394
2020-01-06,7,431
2020-01-07,5,415
2020-01-08,6,422
2020-01-09,4,421
2020-01-10,3,413
2020-01-11,4,392
2020-01-12,13,374
2020-01-13,7,418
2020-01-14,7,427
2020-01-15,6,421
2020-01-16,7,418
2020-01-17,10,404
2020-01-18,14,421
2020-01-19,7,391
2020-01-20,3,454
2020-01-21,4,433
2020-01-22,7,407
2020-01-23,10,400
2020-01-24,5,353
2020-01-25,0,364
2020-01-26,4,353
2020-01-27,9,373
2020-01-28,2,405
2020-01-29,4,420
2020-01-30,7,413
2020-01-31,3,433
2020-02-01,5,399
2020-02-02,8,414
2020-02-03,9,459
2020-02-04,5,417
2020-02-05,8,427
2020-02-06,6,452
2020-02-07,6,448
2020-02-08,8,122
2020-02-09,6,196
2020-02-10,6,490
2020-02-11,3,420
2020-02-12,6,488
2020-02-13,2,452
2020-02-14,7,441
2020-02-15,8,429
2020-02-16,11,425
2020-02-17,5,484
2020-02-18,7,455
2020-02-19,4,454
2020-02-20,6,456
2020-02-21,4,491
2020-02-22,8,433
2020-02-23,5,438
2020-02-24,6,490
2020-02-25,3,468
2020-02-26,8,461
2020-02-27,5,479
2020-02-28,4,468
2020-02-29,7,433
2020-03-01,9,445
2020-03-02,3,480
2020-03-03,4,479
2020-03-04,3,468
2020-03-05,3,478
2020-03-06,1,486
2020-03-07,7,480
2020-03-08,2,466
2020-03-09,3,492
2020-03-10,2,467
2020-03-11,4,486
2020-03-12,6,502
2020-03-13,4,468
2020-03-14,4,483
2020-03-15,5,442
2020-03-16,6,491
2020-03-17,4,476
2020-03-18,4,500
2020-03-19,9,498
2020-03-20,8,497
2020-03-21,21,469
2020-03-22,11,513
2020-03-23,11,497
2020-03-24,7,490
2020-03-25,4,524
2020-03-26,4,498
2020-03-27,5,537
2020-03-28,2,508
2020-03-29,17,484
2020-03-30,12,522
2020-03-31,10,514
2020-04-01,7,506
2020-04-02,8,527
2020-04-03,10,517
2020-04-04,17,503
2020-04-05,22,504
2020-04-06,23,570
2020-04-07,19,539
2020-04-08,19,551
2020-04-09,10,543
2020-04-10,2,519
2020-04-11,1,505
2020-04-12,0,493
2020-04-13,0,513
2020-04-14,3,534
2020-04-15,2,513
2020-04-16,0,520
2020-04-17,3,492
2020-04-18,2,494
2020-04-19,2,486
2020-04-20,0,547
2020-04-21,0,515
2020-04-22,1,514
2020-04-23,0,476
2020-04-24,1,502
2020-04-25,1,483
2020-04-26,0,470
2020-04-27,0,491
2020-04-28,0,491
2020-04-29,0,501
2020-04-30,1,495
2020-05-01,2,446
2020-05-02,0,440
2020-05-03,0,444
2020-05-04,1,493
2020-05-05,0,455
2020-05-06,1,485
2020-05-07,1,444
2020-05-08,1,478
2020-05-09,0,433
2020-05-10,0,451
2020-05-11,0,461
2020-05-12,0,437
2020-05-13,0,450
2020-05-14,0,463
2020-05-15,1,445
2020-05-16,0,445
2020-05-17,0,445
2020-05-18,0,492
2020-05-19,0,453
2020-05-20,0,460
2020-05-21,1,432
2020-05-22,0,445
2020-05-23,0,465
2020-05-24,0,425
2020-05-25,2,465
2020-05-26,0,453
2020-05-27,0,468
2020-05-28,0,437
2020-05-29,0,459
2020-05-30,0,443
2020-05-31,1,432
2020-06-01,1,429
2020-06-02,0,451
2020-06-03,0,422
2020-06-04,0,443
2020-06-05,0,454
2020-06-06,2,432
2020-06-07,1,404
2020-06-08,1,439
2020-06-09,0,410
2020-06-10,1,435
2020-06-11,2,420
2020-06-12,1,441
2020-06-13,1,427
2020-06-14,0,397
2020-06-15,1,431
2020-06-16,0,408
2020-06-17,1,433
2020-06-18,0,410
2020-06-19,0,413
2020-06-20,0,407
2020-06-21,0,393
2020-06-22,0,419
2020-06-23,0,439
2020-06-24,0,400
2020-06-25,0,396
2020-06-26,0,413
2020-06-27,0,364
2020-06-28,0,387
2020-06-29,1,407
2020-06-30,0,392
2020-07-01,0,422
2020-07-02,0,385
2020-07-03,0,398
2020-07-04,1,373
2020-07-05,0,368
2020-07-06,0,406
2020-07-07,1,370
2020-07-08,0,389
2020-07-09,1,380
2020-07-10,1,387
2020-07-11,2,378
2020-07-12,1,376
2020-07-13,1,387
2020-07-14,0,398
2020-07-15,1,384
2020-07-16,0,396
2020-07-17,1,391
2020-07-18,1,367
2020-07-19,2,344
2020-07-20,0,370
2020-07-21,0,380
2020-07-22,0,377
2020-07-23,0,363
2020-07-24,1,379
2020-07-25,1,332
2020-07-26,1,368
2020-07-27,1,346
2020-07-28,2,368
2020-07-29,0,357
2020-07-30,0,362
2020-07-31,0,348
2020-08-01,0,358
2020-08-02,1,333
2020-08-03,1,371
2020-08-04,0,338
2020-08-05,0,374
2020-08-06,2,339
2020-08-07,0,325
2020-08-08,0,332
2020-08-09,0,340
2020-08-10,0,364
2020-08-11,0,333
2020-08-12,0,341
2020-08-13,0,329
2020-08-14,0,336
2020-08-15,1,327
2020-08-16,2,316
2020-08-17,0,334
2020-08-18,0,320
2020-08-19,0,337
2020-08-20,0,355
2020-08-21,1,343
2020-08-22,0,309
2020-08-23,0,317
2020-08-24,0,347
2020-08-25,0,329
2020-08-26,0,324
2020-08-27,2,320
2020-08-28,0,338
2020-08-29,2,314
2020-08-30,0,311
2020-08-31,0,315
2020-09-01,0,321
2020-09-02,0,323
2020-09-03,0,310
2020-09-04,1,320
2020-09-05,0,300
2020-09-06,0,322
2020-09-07,0,313
2020-09-08,0,313
2020-09-09,0,321
2020-09-10,0,315
2020-09-11,0,317
2020-09-12,1,277
2020-09-13,2,305
2020-09-14,0,346
2020-09-15,0,318
2020-09-16,0,335
2020-09-17,0,273
2020-09-18,1,326
2020-09-19,0,302
2020-09-20,0,306
2020-09-21,0,314
2020-09-22,0,313
2020-09-23,1,306
2020-09-24,0,319
2020-09-25,0,323
2020-09-26,0,288
2020-09-27,1,308
2020-09-28,1,316
2020-09-29,0,304
2020-09-30,0,315
2020-10-01,1,264
2020-10-02,0,260
2020-10-03,0,281
2020-10-04,0,273
2020-10-05,1,299
2020-10-06,0,302
2020-10-07,0,280
2020-10-08,0,305
2020-10-09,0,295
2020-10-10,0,294
2020-10-11,0,269
2020-10-12,1,298
2020-10-13,0,287
2020-10-14,2,301
2020-10-15,0,274
2020-10-16,1,301
2020-10-17,0,280
2020-10-18,1,270
2020-10-19,0,309
2020-10-20,0,303
2020-10-21,1,280
2020-10-22,0,292
2020-10-23,1,319
2020-10-24,0,296
2020-10-25,1,268
2020-10-26,0,313
2020-10-27,2,294
2020-10-28,1,303
2020-10-29,0,273
2020-10-30,1,301
2020-10-31,1,275
2020-11-01,0,264
2020-11-02,0,294
2020-11-03,0,278
2020-11-04,0,283
2020-11-05,0,262
2020-11-06,0,276
2020-11-07,1,285
2020-11-08,1,276
2020-11-09,0,281
2020-11-10,1,295
2020-11-11,1,271
2020-11-12,0,282
2020-11-13,0,293
2020-11-14,1,276
2020-11-15,0,256
2020-11-16,0,274
2020-11-17,0,275
2020-11-18,0,280
2020-11-19,1,274
2020-11-20,2,286
2020-11-21,0,247
2020-11-22,0,271
2020-11-23,0,272
2020-11-24,0,274
2020-11-25,0,260
2020-11-26,1,262
2020-11-27,0,255
2020-11-28,0,259
2020-11-29,1,288
2020-11-30,0,262
2020-12-01,0,263
2020-12-02,0,260
2020-12-03,0,266
2020-12-04,0,261
2020-12-05,0,263
2020-12-06,1,244
2020-12-07,0,253
2020-12-08,1,260
2020-12-09,1,257
2020-12-10,0,250
2020-12-11,2,273
2020-12-12,1,256
2020-12-13,1,245
2020-12-14,0,279
2020-12-15,3,241
2020-12-16,1,276
2020-12-17,0,262
2020-12-18,1,241
2020-12-19,2,254
2020-12-20,3,251
2020-12-21,2,257
2020-12-22,0,260
2020-12-23,2,276
2020-12-24,1,266
2020-12-25,4,244
2020-12-26,1,263
2020-12-27,0,258
2020-12-28,0,260
2020-12-29,0,259
2020-12-30,2,267
2020-12-31,0,246
2021-01-01,2,221
2021-01-02,0,264
2021-01-03,1,242
2021-01-04,0,264
2021-01-05,1,279
2021-01-06,1,259
2021-01-07,0,281
2021-01-08,1,257
2021-01-09,4,264
2021-01-10,1,245
2021-01-11,4,275
2021-01-12,2,277
2021-01-13,0,273
2021-01-14,2,278
2021-01-15,1,272
2021-01-16,2,264
2021-01-17,1,240
2021-01-18,3,280
2021-01-19,0,280
2021-01-20,1,295
2021-01-21,2,281
2021-01-22,1,292
2021-01-23,2,268
2021-01-24,2,274
2021-01-25,2,284
2021-01-26,1,287
2021-01-27,1,287
2021-01-28,3,277
2021-01-29,0,287
2021-01-30,5,222
2021-01-31,1,261
2021-02-01,2,279
2021-02-02,3,277
2021-02-03,2,288
2021-02-04,1,291
2021-02-05,1,285
2021-02-06,0,283
2021-02-07,1,250
2021-02-08,0,263
2021-02-09,2,237
2021-02-10,0,203
2021-02-11,2,185
2021-02-12,3,207
2021-02-13,0,186
2021-02-14,1,167
2021-02-15,1,289
2021-02-16,1,289
2021-02-17,0,285
2021-02-18,0,279
2021-02-19,2,274
2021-02-20,4,284
2021-02-21,0,274
2021-02-22,3,247
2021-02-23,2,306
2021-02-24,4,282
2021-02-25,1,302
2021-02-26,0,289
2021-02-27,4,280
2021-02-28,4,277
2021-03-01,2,317
2021-03-02,1,321
2021-03-03,0,326
2021-03-04,0,308
2021-03-05,1,322
2021-03-06,1,329
2021-03-07,2,282
2021-03-08,1,240
2021-03-09,0,227
2021-03-10,3,254
2021-03-11,0,229
2021-03-12,1,238
2021-03-13,1,239
2021-03-14,0,233
2021-03-15,0,232
2021-03-16,1,262
2021-03-17,0,210
2021-03-18,0,232
2021-03-19,0,231
2021-03-20,3,238
2021-03-21,1,204
2021-03-22,0,216
2021-03-23,0,185
2021-03-24,1,198
2021-03-25,0,249
2021-03-26,2,222
2021-03-27,0,203
2021-03-28,2,205
2021-03-29,2,214
2021-03-30,2,235
2021-03-31,0,200
2021-04-01,1,250
2021-04-02,0,183
2021-04-03,2,181
2021-04-04,1,218
2021-04-05,1,222
2021-04-06,1,217
2021-04-07,0,241
2021-04-08,1,239
2021-04-09,0,211
2021-04-10,0,237
2021-04-11,2,245
2021-04-12,2,186
2021-04-13,6,227
2021-04-14,1,228
2021-04-15,4,234
2021-04-16,0,348
2021-04-17,3,324
2021-04-18,3,313
2021-04-19,0,331
2021-04-20,0,342
2021-04-21,1,346
2021-04-22,1,326
2021-04-23,2,350
2021-04-24,3,317
2021-04-25,2,316
2021-04-26,3,340
2021-04-27,0,324
2021-04-28,1,340
2021-04-29,2,327
2021-04-30,1,333
2021-05-01,2,306
2021-05-02,1,317
2021-05-03,2,325
2021-05-04,1,333
2021-05-05,3,328
2021-05-06,3,330
2021-05-07,0,320
2021-05-08,2,321
2021-05-09,3,322
2021-05-10,1,338
2021-05-11,0,322
2021-05-12,0,324
2021-05-13,0,335
2021-05-14,0,338
2021-05-15,2,318
2021-05-16,3,326
2021-05-17,2,343
2021-05-18,3,325
2021-05-19,0,339
2021-05-20,5,341
2021-05-21,3,366
2021-05-22,4,380
2021-05-23,1,377
2021-05-24,5,383
2021-05-25,0,399
2021-05-26,1,386
2021-05-27,0,372
2021-05-28,1,381
2021-05-29,0,372
2021-05-30,3,344
2021-05-31,6,386
2021-06-01,3,329
2021-06-02,3,375
2021-06-03,1,371
2021-06-04,2,365
2021-06-05,0,265
2021-06-06,5,361
2021-06-07,2,346
2021-06-08,4,350
2021-06-09,4,385
2021-06-10,1,384
2021-06-11,5,374
2021-06-12,1,362
2021-06-13,2,354
2021-06-14,0,369
2021-06-15,3,368
2021-06-16,2,382
2021-06-17,3,375
2021-06-18,0,396
2021-06-19,2,360
2021-06-20,4,363
2021-06-21,2,392
2021-06-22,1,412
2021-06-23,1,383
2021-06-24,0,376
2021-06-25,1,391
2021-06-26,2,364
2021-06-27,4,376
2021-06-28,3,401
2021-06-29,1,401
2021-06-30,0,389
2021-07-01,0,396
2021-07-02,3,389
2021-07-03,2,380
2021-07-04,2,373
2021-07-05,0,402
2021-07-06,1,381
2021-07-07,1,387
2021-07-08,4,387
2021-07-09,2,413
2021-07-10,3,376
2021-07-11,3,404
2021-07-12,2,400
2021-07-13,0,379
2021-07-14,0,391
2021-07-15,1,383
2021-07-16,2,423
2021-07-17,0,387
2021-07-18,4,6
2021-07-19,5,89
2021-07-20,0,431
2021-07-21,1,379
2021-07-22,2,403
2021-07-23,0,397
2021-07-24,3,397
2021-07-25,3,393
2021-07-26,1,367
2021-07-27,2,405
2021-07-28,2,390
2021-07-29,3,408
2021-07-30,2,414
2021-07-31,1,401
2021-08-01,2,362
2021-08-02,2,408
2021-08-03,1,401
2021-08-04,4,415
2021-08-05,2,387
2021-08-06,0,420
2021-08-07,9,403
2021-08-08,0,396
2021-08-09,2,410
2021-08-10,2,389
2021-08-11,0,421
2021-08-12,0,389
2021-08-13,1,417
2021-08-14,4,392
2021-08-15,1,417
2021-08-16,0,418
2021-08-17,1,430
2021-08-18,0,425
2021-08-19,3,385
2021-08-20,0,431
2021-08-21,1,401
2021-08-22,3,428
2021-08-23,2,398
2021-08-24,2,439
2021-08-25,2,427
2021-08-26,0,400
2021-08-27,4,419
2021-08-28,1,448
2021-08-29,1,402
2021-08-30,3,427
2021-08-31,1,417
2021-09-01,0,407
2021-09-02,0,436
2021-09-03,0,427
2021-09-04,4,406
2021-09-05,3,397
2021-09-06,1,413
2021-09-07,0,393
2021-09-08,1,394
2021-09-09,2,403
2021-09-10,1,409
2021-09-11,4,409
2021-09-12,1,397
2021-09-13,0,424
2021-09-14,1,414
2021-09-15,0,425
2021-09-16,0,426
2021-09-17,1,417
2021-09-18,0,403
2021-09-19,2,378
2021-09-20,2,411
2021-09-21,1,392
2021-09-22,0,416
2021-09-23,2,430
2021-09-24,1,431
2021-09-25,3,444
2021-09-26,0,376
2021-09-27,1,444
2021-09-28,1,405
2021-09-29,2,415
2021-09-30,0,420
2021-10-01,0,427
2021-10-02,1,425
2021-10-03,1,422
2021-10-04,3,407
2021-10-05,0,414
2021-10-06,1,414
2021-10-07,2,414
2021-10-08,1,418
2021-10-09,0,383
2021-10-10,1,391
2021-10-11,1,411
2021-10-12,2,425
2021-10-13,2,419